Regional Weather Roundup
Issued by NWS

Home | Current Version | Previous Version | Text Only | Print | Product List | Glossary On
Versions: 1 2 3 4 5 6 7 8 9 10 11 12 13 14 15 16 17 18 19 20 21 22 23 24 25 26 27 28 29 30 31 32 33 34 35 36 37 38 39 40 41 42 43 44 45 46 47 48 49 50
000
ASUS42 KFFC 240710
RWRGA
WEATHER ROUNDUP FOR GEORGIA
NATIONAL WEATHER SERVICE PEACHTREE CITY GA
200 AM EST FRI NOV 24 2017

NOTE: "FAIR" INDICATES FEW OR NO CLOUDS BELOW 12,000 FEET WITH NO
SIGNIFICANT WEATHER AND/OR OBSTRUCTIONS TO VISIBILITY.

* = USE WITH CAUTION. THE STATIONS MARKED WITH AN ASTERISK MAY NOT
REPORT WEATHER SUCH AS PRECIPITATION, FOG, OR THUNDER AND ARE NOT
QUALITY CONTROLLED BY NWS.

THE REMARK "TC" DENOTES TEMPERATURE READING IN DEGREES CELSIUS.

GAZ001>058-240800-
NORTH GEORGIA

CITY           SKY/WX    TMP DP  RH WIND       PRES   REMARKS
ATLANTA        PTCLDY    45  39  79 E6        30.02S
ATHENS         CLEAR     36  35  96 CALM      30.03S
CHAMBLEE       CLEAR     36  35  96 N3        30.02S
PEACHTREE CITY PTCLDY    37  36  96 CALM      30.03R
ROME           CLEAR     35  34  96 CALM      30.03S
WEST ATLANTA   CLEAR     38  37  97 CALM      30.03S
GAINESVILLE    CLEAR     39  34  82 CALM      30.04S
CARTERSVILLE   CLEAR     33  33 100 CALM      30.04S


CITY           SKY/WX    TMP DP  RH WIND       PRES   REMARKS
DALTON*        CLEAR     32  32 100 CALM      30.05S
LAWRENCEVILLE* CLEAR     35  34  96 CALM        N/A
MARIETTA       CLEAR     38  36  90 CALM      30.02S
KENNESAW*      CLEAR     38  36  92 CALM      30.03F
CANTON*        CLEAR     36  36 100 CALM      30.03F
$$

GAZ059>098-102>109-240800-
CENTRAL GEORGIA

CITY           SKY/WX    TMP DP  RH WIND       PRES   REMARKS
AUGUSTA-BUSH   CLEAR     35  34  96 CALM      30.03S
AUGUSTA-DANIEL CLEAR     42  36  79 N5        30.03F
COLUMBUS       CLEAR     49  41  74 CALM      30.00S
MACON          PTCLDY    44  41  89 NE3       30.01F
ROBINS AFB     PTCLDY    41  39  94 N3        30.00F


CITY           SKY/WX    TMP DP  RH WIND       PRES   REMARKS
LAGRANGE*      CLEAR     39  38  97 CALM      30.01S
SYLVANIA*      CLEAR     42  40  91 NE5       30.01S
MILLEDGEVILLE* PTCLDY    46  41  81 CALM      30.02F
$$

GAZ099>101-110>166-240800-
SOUTH GEORGIA

CITY           SKY/WX    TMP DP  RH WIND       PRES   REMARKS
SAVANNAH       CLOUDY    46  43  89 N9        29.97F
VALDOSTA       CLEAR     52  50  93 NE7       29.94F
ALMA           CLEAR     48  43  82 N6        29.96F
ST SIMONS      CLOUDY    51  49  92 N10       29.92F
FT STEWART     CLOUDY    47  42  82 N6        29.95F
ALBANY         CLEAR     52  46  80 N5        29.97R
HUNTER AFB     CLOUDY    47  43  85 N6        29.94F
MOODY AFB      CLEAR     52  50  93 N8        29.94F
BRUNSWICK      CLOUDY    50  46  87 NW8       29.94F


CITY           SKY/WX    TMP DP  RH WIND       PRES   REMARKS
BAINBRIDGE*    CLOUDY    59  55  88 E3        29.97S
MOULTRIE*      CLEAR     54  50  87 NE3       29.97F
VIDALIA*       CLEAR     45  41  87 N6        30.00S
WAYCROSS*      PTCLDY    50  47  90 N7        29.95F
DOUGLAS*       CLEAR     50  46  87 NE7       29.98F
$$



USA.gov is the U.S. government's official web portal to all federal, state and local government web resources and services.